TimeEST,TemperatureF,Dew PointF,Humidity,Sea Level PressureIn,VisibilityMPH,Wind Direction,Wind SpeedMPH,Gust SpeedMPH,PrecipitationIn,Events,Conditions,WindDirDegrees,DateUTC
12:53 AM,44.1,25.0,47,30.31,10.0,North,4.6,-,N/A,,Clear,350,2013-01-23 05:53:00
1:53 AM,43.0,26.1,51,30.32,10.0,NNW,5.8,-,N/A,,Clear,340,2013-01-23 06:53:00
2:53 AM,42.1,24.1,49,30.32,10.0,NNW,4.6,-,N/A,,Clear,330,2013-01-23 07:53:00
3:53 AM,41.0,25.0,53,30.32,10.0,NNW,3.5,-,N/A,,Clear,330,2013-01-23 08:53:00
4:53 AM,39.9,25.0,55,30.33,10.0,NNW,4.6,-,N/A,,Clear,330,2013-01-23 09:53:00
5:53 AM,39.9,24.1,53,30.35,10.0,NNW,5.8,-,N/A,,Clear,340,2013-01-23 10:53:00
6:53 AM,37.9,25.0,60,30.36,10.0,NNW,4.6,-,N/A,,Clear,340,2013-01-23 11:53:00
7:53 AM,39.0,25.0,57,30.39,10.0,NNW,4.6,-,N/A,,Clear,330,2013-01-23 12:53:00
8:53 AM,43.0,24.1,47,30.40,10.0,NNW,5.8,-,N/A,,Clear,340,2013-01-23 13:53:00
9:53 AM,48.0,25.0,41,30.43,10.0,North,6.9,-,N/A,,Clear,350,2013-01-23 14:53:00
10:53 AM,51.1,23.0,33,30.43,10.0,NW,6.9,-,N/A,,Clear,310,2013-01-23 15:53:00
11:53 AM,54.0,21.9,29,30.40,10.0,WNW,8.1,-,N/A,,Clear,290,2013-01-23 16:53:00
12:53 PM,55.9,25.0,30,30.36,10.0,West,6.9,-,N/A,,Clear,270,2013-01-23 17:53:00
1:53 PM,57.0,27.0,32,30.32,10.0,West,5.8,-,N/A,,Clear,280,2013-01-23 18:53:00
2:53 PM,59.0,28.9,32,30.30,10.0,WNW,8.1,-,N/A,,Clear,290,2013-01-23 19:53:00
3:53 PM,60.1,30.9,33,30.28,10.0,WNW,6.9,-,N/A,,Clear,290,2013-01-23 20:53:00
4:53 PM,59.0,30.9,35,30.28,10.0,West,8.1,-,N/A,,Clear,270,2013-01-23 21:53:00
5:53 PM,57.0,34.0,42,30.29,10.0,West,5.8,-,N/A,,Clear,260,2013-01-23 22:53:00
6:53 PM,53.1,36.0,52,30.29,10.0,Calm,Calm,-,N/A,,Clear,0,2013-01-23 23:53:00
7:53 PM,50.0,37.0,61,30.29,10.0,Calm,Calm,-,N/A,,Clear,0,2013-01-24 00:53:00
8:53 PM,46.9,37.9,71,30.30,10.0,Calm,Calm,-,N/A,,Clear,0,2013-01-24 01:53:00
9:53 PM,46.9,39.9,77,30.29,10.0,SW,4.6,-,N/A,,Clear,230,2013-01-24 02:53:00
10:53 PM,48.9,39.0,69,30.28,10.0,SW,6.9,-,N/A,,Clear,230,2013-01-24 03:53:00
11:53 PM,48.9,39.0,69,30.27,10.0,SW,5.8,-,N/A,,Partly Cloudy,230,2013-01-24 04:53:00